[[{"header":{"parameterUnit":"m.s-1","parameterCategory":1,"la1":30.2991,"la2":30.254,"lo1":-89.0895,"lo2":-89.0444,"dy":0.0017,"dx":0.0017,"nx":28,"ny":28,"refTime":"2024-07-15T21:00:00:Z","depth":0,"parameterNumber":2,"parameterNumberName":"U-component_of_WINDS"},"data":[0,0,0,0,0,0,0,0,0,0,0,0,0,0,0,0,0,0,0,0,0,0,0,0,0,0,0,0,0,0,0,0,0,0,0,0,0,0,0,0,0,0,0,0,0,0,0,0,0,0,0,0,0,0,0,0,0,0,-0.5114,-0.5114,0,-0.506,-0.5059,-0.5059,-0.5037,-0.5037,-0.5037,-0.5037,-0.4978,-0.4976,-0.4974,0,0,0,0,0,0,0,0,0,0,0,0,0,-0.5196,-0.5195,-0.5114,-0.5113,-0.5113,-0.506,-0.5059,-0.5058,-0.5037,-0.5037,-0.5037,-0.5037,-0.4978,-0.4976,-0.4974,0,0,0,0,0,0,0,0,0,0,0,0,0,-0.5153,-0.5194,-0.5114,-0.5096,-0.5093,-0.506,-0.5059,-0.5058,-0.5036,-0.5037,-0.5037,-0.5037,-0.4979,-0.4977,-0.4974,-0.4954,0,0,-0.4966,-0.4965,0,0,0,0,0,0,0,0,-0.5155,-0.515,-0.5099,-0.5097,-0.5094,-0.5055,-0.5066,-0.5023,-0.5036,-0.5058,-0.5037,-0.5037,-0.5003,-0.4999,-0.4988,-0.4952,-0.4949,-0.4966,-0.4964,-0.4963,-0.4963,0,0,0,0,0,0,0,-0.5158,-0.5152,-0.5093,-0.5098,-0.5095,-0.5089,-0.5083,-0.5058,-0.503,-0.5056,-0.5054,-0.5048,-0.5002,-0.499,-0.4986,-0.4948,-0.4966,-0.4964,-0.4962,-0.4961,-0.4893,-0.4893,0,0,0,0,0,0,-0.5165,-0.5155,-0.5094,-0.5091,-0.5126,-0.5087,-0.5081,-0.5067,-0.503,-0.5025,-0.5048,-0.5048,-0.4995,-0.4989,-0.4984,-0.4959,-0.4963,-0.4961,-0.496,-0.4894,-0.4893,-0.4893,0,0,0,0,0,0,-0.5167,-0.516,-0.5096,-0.5122,-0.5114,-0.5086,-0.5071,-0.5066,-0.5055,-0.5024,-0.5019,-0.5042,-0.4995,-0.4988,-0.4962,-0.4957,-0.496,-0.4958,-0.4894,-0.4894,-0.4893,-0.4908,0,0,0,0,0,0,-0.5169,-0.5161,-0.5153,-0.5122,-0.5113,-0.5076,-0.5071,-0.5065,-0.5051,-0.505,-0.5017,-0.5012,-0.4994,-0.4966,-0.496,-0.4953,-0.4956,-0.4894,-0.4894,-0.4893,-0.4908,-0.4908,-0.4909,0,0,0,0,0,-0.5172,-0.5159,-0.5153,-0.5146,-0.5103,-0.5076,-0.507,-0.5051,-0.5051,-0.5043,-0.5023,-0.5013,-0.4959,-0.4964,-0.4956,-0.4949,-0.4895,-0.4894,-0.4893,-0.4908,-0.4908,-0.4909,0,0,0,0,0,0,-0.5188,-0.5154,-0.5148,-0.5124,-0.5103,-0.5072,-0.5062,-0.5052,-0.503,-0.503,-0.5006,-0.4999,-0.4976,-0.496,-0.4966,-0.4928,-0.4926,-0.4924,-0.4939,-0.4939,-0.494,-0.4944,-0.4953,0,0,0,0,0,-0.5189,-0.5171,-0.5142,-0.5124,-0.5114,-0.509,-0.5077,-0.5065,-0.5042,-0.5033,-0.5011,-0.4988,-0.4966,-0.4952,-0.493,-0.4906,-0.4898,-0.4897,-0.4897,-0.4898,-0.4896,-0.4883,-0.4882,-0.4891,-0.4891,-0.4891,0,0,-0.5191,-0.517,-0.516,-0.5127,-0.5109,-0.509,-0.5082,-0.5062,-0.5048,-0.5029,-0.5004,-0.4988,-0.4961,-0.4936,-0.4924,-0.4922,-0.4892,-0.4897,-0.4898,-0.4895,-0.4882,-0.4881,-0.488,-0.4891,-0.4891,-0.4891,0,0,-0.5184,-0.5166,-0.515,-0.5133,-0.5107,-0.5091,-0.5087,-0.5058,-0.5047,-0.5022,-0.5007,-0.4989,-0.4951,-0.4933,-0.4919,-0.4906,-0.4896,-0.49,-0.4901,-0.4888,-0.4887,-0.4886,-0.4882,-0.4881,-0.4898,-0.4898,-0.4898,0,-0.5188,-0.516,-0.5142,-0.5123,-0.5109,-0.5093,-0.5075,-0.5059,-0.5027,-0.5017,-0.5016,-0.4969,-0.4949,-0.4921,-0.4918,-0.4907,-0.4901,-0.4903,-0.4889,-0.4888,-0.4887,-0.4882,-0.4881,-0.4899,-0.4899,-0.4899,-0.4898,0,-0.5167,-0.5148,-0.5137,-0.5108,-0.5093,-0.5074,-0.5053,-0.504,-0.5029,-0.5013,-0.4988,-0.4964,-0.4938,-0.493,-0.4918,-0.49,-0.4899,-0.4894,-0.4891,-0.4887,-0.4882,-0.488,-0.49,-0.4899,-0.4899,-0.4899,0,0,-0.5167,-0.513,-0.5126,-0.5113,-0.5084,-0.5068,-0.5049,-0.5024,-0.5013,-0.4992,-0.4975,-0.4944,-0.4939,-0.4923,-0.491,-0.4898,-0.489,-0.4894,-0.4893,-0.4894,-0.4868,-0.4872,-0.4871,-0.4884,-0.4883,-0.4883,-0.487,0,-0.5156,-0.5123,-0.5107,-0.508,-0.5062,-0.5047,-0.503,-0.501,-0.4996,-0.4977,-0.496,-0.4939,-0.4934,-0.4924,-0.4913,-0.4894,-0.4885,-0.4894,-0.4867,-0.4866,-0.4874,-0.4868,-0.4872,-0.4862,-0.4869,-0.4868,-0.4868,0,-0.5138,-0.5119,-0.5091,-0.5065,-0.5056,-0.5042,-0.5018,-0.5001,-0.4978,-0.4968,-0.4951,-0.4938,-0.4917,-0.4917,-0.4887,-0.4895,-0.4883,-0.4872,-0.4871,-0.4867,-0.4867,-0.4864,-0.4858,-0.4856,-0.4865,-0.4865,-0.4865,0,-0.5142,-0.5108,-0.5087,-0.5076,-0.5045,-0.5035,-0.5022,-0.4999,-0.4985,-0.4964,-0.4955,-0.4932,-0.4919,-0.4901,-0.4882,-0.4883,-0.4854,-0.4852,-0.4845,-0.4845,-0.4839,-0.4839,-0.483,-0.4832,-0.4832,-0.4832,-0.4832,0,-0.5131,-0.5114,-0.5088,-0.5075,-0.5056,-0.5038,-0.5019,-0.5004,-0.4984,-0.4968,-0.4953,-0.4938,-0.4914,-0.4896,-0.4881,-0.4859,-0.4853,-0.4844,-0.484,-0.4845,-0.4846,-0.4836,-0.4836,-0.4832,-0.4832,-0.4832,-0.4832,0,-0.5131,-0.5113,-0.5089,-0.5062,-0.5055,-0.5042,-0.5018,-0.5005,-0.499,-0.4969,-0.4963,-0.4939,-0.4917,-0.4897,-0.4866,-0.4856,-0.4834,-0.4829,-0.4842,-0.484,-0.4834,-0.4835,-0.4818,-0.4815,-0.4819,-0.4819,-0.4819,0,-0.5125,-0.5112,-0.5084,-0.5072,-0.506,-0.5041,-0.5027,-0.5009,-0.4995,-0.4969,-0.4958,-0.4935,-0.4916,-0.4881,-0.486,-0.4837,-0.4831,-0.4827,-0.4828,-0.4834,-0.4831,-0.4832,-0.4831,-0.4827,-0.4827,-0.4827,-0.4827,0,-0.5116,-0.5108,-0.509,-0.5068,-0.5053,-0.5035,-0.5016,-0.5007,-0.4985,-0.497,-0.4948,-0.4933,-0.4904,-0.4881,-0.4856,-0.4841,-0.483,-0.4828,-0.4825,-0.4829,-0.4837,-0.4833,-0.4843,-0.4828,-0.4828,-0.4828,-0.4828,-0.4828,-0.5112,-0.5101,-0.5079,-0.506,-0.5044,-0.5027,-0.5014,-0.4998,-0.4979,-0.4954,-0.4944,-0.4921,-0.4899,-0.4865,-0.485,-0.4832,-0.483,-0.4825,-0.4824,-0.4823,-0.4825,-0.4841,-0.4827,-0.4827,-0.4827,-0.4827,-0.4827,0,-0.5103,-0.5089,-0.5071,-0.5046,-0.5031,-0.5024,-0.5003,-0.499,-0.4971,-0.4951,-0.4933,-0.4908,-0.4886,-0.4864,-0.4841,-0.4831,-0.4825,-0.4825,-0.4825,-0.4822,-0.4828,-0.4833,-0.483,-0.483,-0.483,-0.483,-0.483,-0.483,-0.5096,-0.5076,-0.5066,-0.5037,-0.5023,-0.5002,-0.4991,-0.4975,-0.496,-0.4933,-0.4915,-0.4901,-0.4881,-0.4856,-0.4836,-0.483,-0.4822,-0.4823,-0.4816,-0.4822,-0.4822,-0.4822,-0.4826,-0.4822,-0.4822,-0.4812,-0.4812,-0.4812]},{"header":{"parameterUnit":"m.s-1","parameterCategory":1,"la1":30.2991,"la2":30.254,"lo1":-89.0895,"lo2":-89.0444,"dy":0.0017,"dx":0.0017,"nx":28,"ny":28,"refTime":"2024-07-15T21:00:00:Z","depth":0,"parameterNumber":3,"parameterNumberName":"V-component_of_WINDS"},"data":[0,0,0,0,0,0,0,0,0,0,0,0,0,0,0,0,0,0,0,0,0,0,0,0,0,0,0,0,0,0,0,0,0,0,0,0,0,0,0,0,0,0,0,0,0,0,0,0,0,0,0,0,0,0,0,0,0,0,3.9707,3.9708,0,3.9728,3.9728,3.9728,3.9707,3.9706,3.9705,3.9705,3.9721,3.9722,3.9724,0,0,0,0,0,0,0,0,0,0,0,0,0,3.9643,3.9644,3.9707,3.9708,3.9708,3.9728,3.9728,3.9728,3.9707,3.9706,3.9705,3.9704,3.9721,3.9722,3.9724,0,0,0,0,0,0,0,0,0,0,0,0,0,3.9668,3.9644,3.9707,3.97,3.9699,3.9728,3.9728,3.9728,3.9707,3.9706,3.9705,3.9704,3.972,3.9722,3.9724,3.9759,0,0,3.9729,3.973,0,0,0,0,0,0,0,0,3.9666,3.967,3.9701,3.97,3.97,3.9714,3.9711,3.9739,3.9708,3.9704,3.9704,3.9703,3.9719,3.9721,3.9728,3.976,3.9761,3.973,3.9731,3.9732,3.9732,0,0,0,0,0,0,0,3.9665,3.9669,3.9715,3.9701,3.9701,3.9693,3.9695,3.9716,3.9718,3.9704,3.9703,3.9706,3.9719,3.9726,3.9728,3.9761,3.973,3.9731,3.9732,3.9733,3.9817,3.9818,0,0,0,0,0,0,3.9664,3.9668,3.9715,3.9716,3.968,3.9695,3.9698,3.971,3.9718,3.9718,3.9707,3.9705,3.9723,3.9726,3.9728,3.9766,3.9731,3.9733,3.9734,3.9816,3.9817,3.9818,0,0,0,0,0,0,3.9663,3.9669,3.9714,3.9691,3.9696,3.9697,3.9712,3.9711,3.9718,3.972,3.9719,3.9714,3.9723,3.9726,3.9751,3.9767,3.9734,3.9736,3.9814,3.9816,3.9818,3.9845,0,0,0,0,0,0,3.9661,3.9669,3.9684,3.9692,3.9698,3.9738,3.9713,3.9713,3.9722,3.9719,3.9727,3.9726,3.9722,3.9748,3.9752,3.9768,3.9737,3.9813,3.9815,3.9817,3.9842,3.9847,3.9851,0,0,0,0,0,3.9659,3.9692,3.9685,3.9691,3.9718,3.9739,3.9743,3.9738,3.9724,3.9737,3.9737,3.9726,3.9764,3.9751,3.9756,3.9772,3.9812,3.9815,3.9817,3.984,3.9846,3.9851,0,0,0,0,0,0,3.9686,3.9693,3.9686,3.9722,3.973,3.9736,3.9754,3.9745,3.9757,3.9754,3.9746,3.9747,3.9773,3.9775,3.976,3.9804,3.9785,3.9789,3.9801,3.9807,3.9811,3.9809,3.9739,0,0,0,0,0,3.9696,3.9715,3.9719,3.975,3.9755,3.9753,3.9763,3.9758,3.9766,3.9769,3.9771,3.9777,3.979,3.9799,3.9811,3.9843,3.9841,3.9856,3.986,3.9864,3.9867,3.9878,3.9883,3.9827,3.9827,3.9827,0,0,3.9717,3.9723,3.9736,3.9756,3.9762,3.9778,3.9757,3.9777,3.9788,3.9772,3.9794,3.9796,3.9802,3.9829,3.9841,3.9831,3.9882,3.9867,3.987,3.9871,3.9881,3.9887,3.9891,3.9829,3.9828,3.9828,0,0,3.9764,3.9772,3.9796,3.9802,3.981,3.9809,3.9814,3.982,3.982,3.9843,3.983,3.9842,3.9866,3.9869,3.9874,3.9915,3.9904,3.9919,3.9942,3.9953,3.9958,3.9962,3.9973,3.9977,3.9922,3.9923,3.9923,0,3.9789,3.9815,3.981,3.9829,3.9836,3.9822,3.9844,3.9849,3.9861,3.9865,3.9855,3.9881,3.9884,3.9909,3.9919,3.9925,3.9928,3.9918,3.9958,3.9962,3.9965,3.9976,3.998,3.9924,3.9924,3.9924,3.9924,0,3.9842,3.9861,3.9879,3.989,3.9899,3.992,3.9915,3.9924,3.9917,3.9915,3.9936,3.9939,3.9949,3.9955,3.9949,3.9978,3.9971,3.996,3.9941,3.9972,3.9982,3.9986,3.9926,3.9926,3.9925,3.9925,0,0,3.9909,3.9913,3.992,3.9922,3.9928,3.9941,3.9959,3.9969,3.9975,3.9983,3.9995,4.0013,4.0001,4.0006,4.0,4.001,4.0038,3.9997,3.9997,4.0002,4.0064,4.0071,4.0076,4.003,4.0031,4.0032,4.0063,0,3.9952,3.9984,3.9978,4.0008,4.0022,4.0006,4.0021,4.0024,4.0022,4.0031,4.0028,4.0039,4.0024,4.0027,4.0036,4.0033,4.005,4.0031,4.0039,4.0039,4.0036,4.0082,4.0091,4.012,4.0067,4.0067,4.0068,0,4.0008,4.0016,4.0048,4.0047,4.0052,4.0066,4.0072,4.0082,4.0084,4.0081,4.0085,4.0075,4.0089,4.0071,4.0087,4.0074,4.0076,4.0075,4.0075,4.0075,4.0054,4.008,4.0129,4.0133,4.0074,4.0074,4.0073,0,4.0047,4.0067,4.0087,4.009,4.0091,4.01,4.01,4.0101,4.0106,4.011,4.0113,4.0119,4.0122,4.0125,4.0116,4.0104,4.0132,4.0114,4.0127,4.0127,4.0133,4.0133,4.0181,4.0139,4.0139,4.0139,4.0138,0,4.0095,4.0114,4.0104,4.0116,4.0135,4.0126,4.0144,4.0143,4.0143,4.0152,4.0138,4.0147,4.0135,4.0141,4.0134,4.0146,4.0149,4.0144,4.0142,4.0144,4.0144,4.0145,4.0142,4.014,4.0139,4.0139,4.0139,0,4.0143,4.0137,4.0157,4.0155,4.0155,4.0169,4.0166,4.0175,4.017,4.0182,4.0184,4.0176,4.0182,4.0173,4.0179,4.0174,4.019,4.0185,4.0189,4.0187,4.02,4.0197,4.0249,4.0253,4.021,4.021,4.0211,0,4.0173,4.0187,4.0185,4.019,4.0191,4.0201,4.0205,4.0194,4.0199,4.0199,4.0207,4.0213,4.0216,4.0226,4.022,4.0223,4.0216,4.0234,4.0217,4.0217,4.0213,4.0211,4.0211,4.0237,4.0238,4.0238,4.0238,0,4.0225,4.022,4.0227,4.0232,4.0237,4.0241,4.0243,4.0248,4.0236,4.0241,4.0248,4.025,4.0254,4.0258,4.0259,4.0257,4.0244,4.0244,4.0246,4.0248,4.0249,4.0246,4.0196,4.0243,4.0242,4.0242,4.0242,4.0241,4.0262,4.0272,4.0271,4.0278,4.0278,4.0279,4.0287,4.0282,4.0287,4.029,4.0283,4.029,4.0287,4.0287,4.0285,4.0288,4.028,4.0285,4.0286,4.0287,4.0287,4.025,4.0289,4.0289,4.0288,4.0288,4.0288,0,4.031,4.0308,4.0315,4.0317,4.0321,4.031,4.0311,4.0315,4.0321,4.032,4.0323,4.0327,4.033,4.0323,4.0323,4.0327,4.0321,4.0327,4.0326,4.0325,4.0296,4.0292,4.0332,4.0332,4.0332,4.0332,4.0332,4.0332,4.0336,4.035,4.0345,4.0357,4.0355,4.0361,4.0362,4.0362,4.036,4.0366,4.0368,4.0363,4.0358,4.0358,4.0359,4.0356,4.0356,4.0363,4.0359,4.0332,4.0327,4.0323,4.0319,4.0364,4.0364,4.0387,4.0387,4.0387]}]]